This demonstration page uses our WeatherBlox Daily Observations layout. Learn more.

Left ArrowRight Arrow

38.20091, -84.87328

Hourly Observations for August 12, 2021

Temp ( °F °C ) Dew Point ( °F °C ) Humidity (%) Winds ( mph kmh ) Pressure ( in mb ) Visibility ( mi km ) Precip ( " mm )
12:53 am 00:53 Clear 79 26.1 74 23.3 85 85 SSW 6 9 30.01 1016 10 16 0.00 0.00
1:53 am 01:53 Clear 78 25.6 73 22.8 85 85 SSW 6 9 30.02 1017 10 16 0.00 0.00
2:53 am 02:53 Clear 78 25.6 72 22.2 82 82 SSW 6 9 30.01 1016 10 16 0.00 0.00
3:53 am 03:53 Clear 77 25 72 22.2 85 85 S 5 7 30.01 1016 10 16 0.00 0.00
4:53 am 04:53 Clear 76 24.4 72 22.2 88 88 S 7 11 30.01 1016 10 16 0.00 0.00
5:53 am 05:53 Clear 76 24.4 72 22.2 88 88 SSW 7 11 30.02 1017 10 16 0.00 0.00
6:53 am 06:53 Sunny 76 24.4 72 22.2 88 88 SSW 9 15 30.04 1017 10 16 0.00 0.00
7:53 am 07:53 Sunny 76 24.4 72 22.2 88 88 SSW 10 17 30.06 1018 10 16 0.00 0.00
8:53 am 08:53 Mostly Sunny 79 26.1 72 22.2 79 79 SW 9 15 30.10 1019 10 16 0.00 0.00
9:53 am 09:53 Sunny 81 27.2 72 22.2 74 74 SSW 13 20 30.10 1019 10 16 0.00 0.00
10:53 am 10:53 Sunny 83 28.3 73 22.8 72 72 SSW 10 17 30.11 1020 10 16 0.00 0.00
11:53 am 11:53 Sunny 86 30 74 23.3 67 67 S 13 20 30.09 1019 10 16 0.00 0.00
12:53 pm 12:53 Sunny 88 31.1 75 23.9 66 66 SSW 9 15 30.08 1019 10 16 0.00 0.00
1:53 pm 13:53 Sunny 91 32.8 75 23.9 59 59 SW 10 17 30.06 1018 10 16 0.00 0.00
2:53 pm 14:53 Mostly Cloudy 90 32.2 75 23.9 62 62 VRB 5 7 30.05 1018 10 16 0.00 0.00
3:53 pm 15:53 Mostly Sunny 92 33.3 75 23.9 58 58 WSW 8 13 30.02 1017 10 16 0.00 0.00
4:53 pm 16:53 Partly Cloudy 92 33.3 76 24.4 60 60 SSW 12 19 30.01 1016 10 16 0.00 0.00
5:53 pm 17:53 Mostly Sunny 92 33.3 75 23.9 58 58 SW 13 20 30.02 1017 10 16 0.00 0.00
6:53 pm 18:53 Sunny 91 32.8 74 23.3 57 57 SSW 12 19 29.99 1016 10 16 0.00 0.00
7:53 pm 19:53 Sunny 89 31.7 74 23.3 61 61 S 10 17 30.00 1016 10 16 0.00 0.00
8:53 pm 20:53 Clear 85 29.4 74 23.3 70 70 WSW 6 9 30.03 1017 10 16 0.00 0.00
9:53 pm 21:53 Mostly Cloudy with Nearby Thunderstorms 83 28.3 75 23.9 77 77 Calm 30.04 1017 10 16 0.00 0.00
10:29 pm 22:29 Mostly Cloudy with Thunderstorms 79 26.1 68 20 69 69 WNW 16 26 30.08 1019 10 16 0.00 0.00
10:53 pm 22:53 Cloudy with Nearby Thunderstorms 76 24.4 68 20 77 77 SW 7 11 30.07 1018 10 16 0.00 0.00
11:01 pm 23:01 Mostly Cloudy with Thunderstorms 76 24.4 68 20 77 77 SSW 15 24 30.09 1019 10 16 0.00 0.00
11:25 pm 23:25 Mostly Clear with Nearby Thunderstorms 75 23.9 69 20.6 82 82 E 5 7 30.06 1018 10 16 0.00 0.00
11:34 pm 23:34 Clear 75 23.9 69 20.6 82 82 Calm 30.06 1018 10 16 0.00 0.00
11:53 pm 23:53 Clear 75 23.9 69 20.6 82 82 SSW 5 7 30.06 1018 10 16 0.00 0.00

Powered by AerisWeather